| time (UTC) | temp F | wind direction | speed MPH | gust MPH | rain 1hr in | rain 24hr in | rain mn in | humidity % | barometer mb |
| 20260905185632 | 94 | 71 | 0.0 | 0.0 | 0.00 | 0.00 | 0.00 | 56 | 1011.8 |
| 20260905184646 | 95 | 71 | 0.0 | 0.0 | 0.00 | 0.00 | 0.00 | 56 | 1012.0 |
| 20260905182431 | 95 | 71 | 0.0 | 2.0 | 0.00 | 0.00 | 0.00 | 55 | 1012.2 |
| 20260905181454 | 95 | 102 | 0.0 | 2.0 | 0.00 | 0.00 | 0.00 | 55 | 1012.3 |
| 20260905180512 | 95 | 202 | 0.0 | 0.0 | 0.00 | 0.00 | 0.00 | 56 | 1012.6 |
| 20260905175457 | 95 | 103 | 0.0 | 1.0 | 0.00 | 0.00 | 0.00 | 55 | 1012.8 |
| 20260905174518 | 95 | 104 | 0.0 | 2.0 | 0.00 | 0.00 | 0.00 | 56 | 1013.0 |
| 20260905172351 | 93 | 128 | 0.0 | 1.0 | 0.00 | 0.00 | 0.00 | 56 | 1013.4 |
| 20260905171345 | 93 | 78 | 0.0 | 2.0 | 0.00 | 0.00 | 0.00 | 56 | 1013.5 |
| 20260905170359 | 93 | 78 | 0.0 | 0.0 | 0.00 | 0.00 | 0.00 | 55 | 1013.6 |
| 20260905163058 | 91 | 355 | 0.0 | 0.0 | 0.00 | 0.00 | 0.00 | 48 | 1013.8 |
| 20260905162033 | 90 | 326 | 0.0 | 4.0 | 0.00 | 0.00 | 0.00 | 48 | 1013.8 |
| 20260905161003 | 89 | 224 | 0.0 | 4.0 | 0.00 | 0.00 | 0.00 | 39 | 1013.8 |
| 20260905160008 | 88 | 151 | 0.0 | 0.0 | 0.00 | 0.00 | 0.00 | 21 | 1013.8 |
| 20260905155009 | 86 | 67 | 0.0 | 0.0 | 0.00 | 0.00 | 0.00 | 1 | 1013.9 |
| 20260905154007 | 85 | 23 | 0.0 | 0.0 | 0.00 | 0.00 | 0.00 | 1 | 1014.0 |
| 20260905152947 | 85 | 23 | 0.0 | 0.0 | 0.00 | 0.00 | 0.00 | 1 | 1013.9 |
| 20260905150807 | 83 | 145 | 0.0 | 0.0 | 0.00 | 0.00 | 0.00 | 1 | 1013.8 |
| 20260905144651 | 82 | 145 | 0.0 | 0.0 | 0.00 | 0.00 | 0.00 | 1 | 1013.8 |
| 20260905143711 | 82 | 145 | 0.0 | 0.0 | 0.00 | 0.00 | 0.00 | 1 | 1013.8 |
| 20260905142706 | 81 | 148 | 0.0 | 0.0 | 0.00 | 0.00 | 0.00 | 1 | 1013.7 |
| 20260905140540 | 80 | 148 | 0.0 | 0.0 | 0.00 | 0.00 | 0.00 | 1 | 1013.8 |
| 20260905135518 | 79 | 148 | 0.0 | 0.0 | 0.00 | 0.00 | 0.00 | 1 | 1013.8 |
| 20260905134520 | 79 | 148 | 0.0 | 0.0 | 0.00 | 0.00 | 0.00 | 1 | 1013.7 |
| 20260905133533 | 78 | 148 | 0.0 | 0.0 | 0.00 | 0.00 | 0.00 | 1 | 1013.7 |
| 20260905131426 | 76 | 148 | 0.0 | 0.0 | 0.00 | 0.00 | 0.00 | 1 | 1013.6 |
| 20260905130448 | 76 | 148 | 0.0 | 0.0 | 0.00 | 0.00 | 0.00 | 1 | 1013.6 |
| 20260905125449 | 75 | 148 | 0.0 | 0.0 | 0.00 | 0.00 | 0.00 | 1 | 1013.4 |
| 20260905124449 | 75 | 148 | 0.0 | 0.0 | 0.00 | 0.00 | 0.00 | 1 | 1013.3 |
| 20260905123501 | 75 | 148 | 0.0 | 0.0 | 0.00 | 0.00 | 0.00 | 1 | 1013.2 |
| 20260905122458 | 75 | 148 | 0.0 | 0.0 | 0.00 | 0.00 | 0.00 | 1 | 1013.0 |
| 20260905120352 | 76 | 148 | 0.0 | 0.0 | 0.00 | 0.00 | 0.00 | 1 | 1012.8 |
| 20260905115320 | 76 | 148 | 0.0 | 0.0 | 0.00 | 0.00 | 0.00 | 1 | 1012.7 |
| 20260905114316 | 76 | 148 | 0.0 | 0.0 | 0.00 | 0.00 | 0.00 | 1 | 1012.7 |
| 20260905112127 | 76 | 148 | 0.0 | 0.0 | 0.00 | 0.00 | 0.00 | 1 | 1012.4 |
| 20260905111140 | 76 | 148 | 0.0 | 0.0 | 0.00 | 0.00 | 0.00 | 1 | 1012.3 |
| 20260905105017 | 76 | 148 | 0.0 | 0.0 | 0.00 | 0.00 | 0.00 | 1 | 1012.1 |
| 20260905102841 | 76 | 148 | 0.0 | 0.0 | 0.00 | 0.00 | 0.00 | 1 | 1012.1 |
| 20260905101833 | 76 | 148 | 0.0 | 0.0 | 0.00 | 0.00 | 0.00 | 1 | 1012.1 |
| 20260905100802 | 76 | 137 | 0.0 | 0.0 | 0.00 | 0.00 | 0.00 | 1 | 1012.1 |
| 20260905095752 | 76 | 137 | 0.0 | 0.0 | 0.00 | 0.00 | 0.00 | 1 | 1012.0 |
| 20260905094817 | 76 | 137 | 0.0 | 0.0 | 0.00 | 0.00 | 0.00 | 1 | 1012.1 |
| 20260905090432 | 76 | 137 | 0.0 | 0.0 | 0.00 | 0.01 | 0.00 | 1 | 1012.0 |
| 20260905085425 | 76 | 137 | 0.0 | 0.0 | 0.00 | 0.02 | 0.00 | 1 | 1012.0 |
| 20260905083335 | 77 | 137 | 0.0 | 0.0 | 0.00 | 0.04 | 0.00 | 1 | 1012.0 |
| 20260905082342 | 77 | 137 | 0.0 | 0.0 | 0.00 | 0.04 | 0.00 | 1 | 1011.9 |
| 20260905081321 | 77 | 137 | 0.0 | 0.0 | 0.00 | 0.04 | 0.00 | 1 | 1012.0 |
| 20260905080301 | 77 | 137 | 0.0 | 0.0 | 0.00 | 0.04 | 0.00 | 1 | 1011.9 |
| 20260905074053 | 77 | 137 | 0.0 | 0.0 | 0.00 | 0.04 | 0.00 | 1 | 1012.0 |
| 20260905071915 | 77 | 137 | 0.0 | 0.0 | 0.00 | 0.04 | 0.00 | 1 | 1012.2 |
| 20260905070926 | 77 | 137 | 0.0 | 0.0 | 0.00 | 0.04 | 0.00 | 1 | 1012.3 |
| 20260905065851 | 77 | 137 | 0.0 | 0.0 | 0.00 | 0.04 | 0.00 | 1 | 1012.5 |
| 20260905064846 | 77 | 137 | 0.0 | 0.0 | 0.00 | 0.04 | 0.00 | 1 | 1012.5 |
| 20260905063841 | 78 | 137 | 0.0 | 0.0 | 0.00 | 0.04 | 0.00 | 1 | 1012.5 |
| 20260905062834 | 78 | 137 | 0.0 | 0.0 | 0.00 | 0.04 | 0.00 | 1 | 1012.6 |
| 20260905061825 | 78 | 137 | 0.0 | 0.0 | 0.00 | 0.04 | 0.00 | 1 | 1012.5 |
| 20260905060826 | 78 | 137 | 0.0 | 0.0 | 0.00 | 0.04 | 0.00 | 1 | 1012.6 |
| 20260905055848 | 78 | 137 | 0.0 | 0.0 | 0.00 | 0.04 | 0.00 | 1 | 1012.6 |
| 20260905051454 | 78 | 137 | 0.0 | 0.0 | 0.00 | 0.04 | 0.00 | 1 | 1012.6 |
| 20260905050509 | 79 | 137 | 0.0 | 0.0 | 0.00 | 0.04 | 0.00 | 1 | 1012.6 |
| 20260905045531 | 79 | 137 | 0.0 | 0.0 | 0.00 | 0.04 | 0.05 | 1 | 1012.7 |
| 20260905044524 | 79 | 137 | 0.0 | 0.0 | 0.00 | 0.04 | 0.05 | 1 | 1012.6 |
| 20260905043505 | 79 | 137 | 0.0 | 0.0 | 0.00 | 0.04 | 0.05 | 1 | 1012.6 |
| 20260905042455 | 79 | 137 | 0.0 | 0.0 | 0.00 | 0.04 | 0.05 | 1 | 1012.7 |
| 20260905040340 | 79 | 137 | 0.0 | 0.0 | 0.00 | 0.04 | 0.05 | 1 | 1012.6 |
| 20260905035343 | 80 | 137 | 0.0 | 0.0 | 0.00 | 0.04 | 0.05 | 1 | 1012.7 |
| 20260905034316 | 80 | 137 | 0.0 | 0.0 | 0.00 | 0.04 | 0.05 | 1 | 1012.8 |
| 20260905033320 | 80 | 137 | 0.0 | 0.0 | 0.00 | 0.04 | 0.05 | 1 | 1012.7 |
| 20260905032317 | 80 | 137 | 0.0 | 0.0 | 0.00 | 0.04 | 0.05 | 1 | 1012.9 |
| 20260905031257 | 80 | 137 | 0.0 | 0.0 | 0.00 | 0.04 | 0.05 | 1 | 1012.8 |
| 20260905030253 | 80 | 137 | 0.0 | 0.0 | 0.00 | 0.04 | 0.05 | 1 | 1012.8 |
| 20260905024056 | 81 | 137 | 0.0 | 0.0 | 0.00 | 0.04 | 0.05 | 1 | 1012.8 |
| 20260905023025 | 81 | 137 | 0.0 | 0.0 | 0.00 | 0.04 | 0.05 | 1 | 1012.8 |
| 20260905022028 | 81 | 137 | 0.0 | 0.0 | 0.00 | 0.04 | 0.05 | 1 | 1012.7 |
| 20260905021052 | 82 | 137 | 0.0 | 0.0 | 0.00 | 0.04 | 0.05 | 1 | 1012.5 |
| 20260905020113 | 82 | 137 | 0.0 | 0.0 | 0.00 | 0.04 | 0.05 | 1 | 1012.5 |
| 20260905015127 | 82 | 137 | 0.0 | 0.0 | 0.00 | 0.04 | 0.05 | 1 | 1012.2 |
| 20260905014131 | 83 | 137 | 0.0 | 0.0 | 0.00 | 0.04 | 0.05 | 1 | 1012.1 |
| 20260905010907 | 84 | 137 | 0.0 | 0.0 | 0.00 | 0.04 | 0.05 | 1 | 1011.8 |
| 20260905005911 | 85 | 137 | 0.0 | 0.0 | 0.00 | 0.04 | 0.05 | 6 | 1011.7 |
| 20260905004901 | 85 | 137 | 0.0 | 0.0 | 0.00 | 0.04 | 0.05 | 9 | 1011.7 |
| 20260905002738 | 85 | 137 | 0.0 | 0.0 | 0.00 | 0.04 | 0.05 | 15 | 1011.4 |
| 20260905000548 | 86 | 137 | 0.0 | 0.0 | 0.00 | 0.04 | 0.05 | 17 | 1011.5 |
| 20260904235602 | 86 | 137 | 0.0 | 0.0 | 0.00 | 0.04 | 0.05 | 18 | 1011.4 |
| 20260904234609 | 86 | 137 | 0.0 | 0.0 | 0.00 | 0.04 | 0.05 | 18 | 1011.5 |
| 20260904233538 | 86 | 137 | 0.0 | 2.0 | 0.00 | 0.04 | 0.05 | 20 | 1011.5 |
| 20260904231410 | 87 | 87 | 0.0 | 5.0 | 0.00 | 0.04 | 0.05 | 18 | 1011.5 |
| 20260904230420 | 87 | 97 | 0.0 | 5.0 | 0.00 | 0.04 | 0.05 | 22 | 1011.5 |
| 20260904225405 | 88 | 128 | 0.0 | 0.0 | 0.00 | 0.04 | 0.05 | 21 | 1011.4 |
| 20260904224352 | 88 | 128 | 0.0 | 0.0 | 0.00 | 0.04 | 0.05 | 22 | 1011.6 |
| 20260904223415 | 89 | 128 | 0.0 | 0.0 | 0.00 | 0.04 | 0.05 | 33 | 1011.5 |
| 20260904222424 | 90 | 128 | 0.0 | 0.0 | 0.00 | 0.04 | 0.05 | 41 | 1011.4 |
| 20260904221353 | 90 | 128 | 0.0 | 1.0 | 0.00 | 0.04 | 0.05 | 45 | 1011.6 |
| 20260904220346 | 91 | 129 | 0.0 | 0.0 | 0.00 | 0.04 | 0.05 | 44 | 1011.7 |
| 20260904215328 | 91 | 128 | 0.0 | 0.0 | 0.00 | 0.04 | 0.05 | 49 | 1011.7 |
| 20260904214338 | 91 | 129 | 0.0 | 0.0 | 0.00 | 0.04 | 0.05 | 52 | 1011.6 |
| 20260904212234 | 92 | 129 | 0.0 | 1.0 | 0.00 | 0.04 | 0.05 | 55 | 1011.8 |
| 20260904211212 | 93 | 129 | 0.0 | 3.0 | 0.00 | 0.04 | 0.05 | 55 | 1012.0 |
| 20260904205104 | 93 | 129 | 0.0 | 3.0 | 0.00 | 0.04 | 0.05 | 55 | 1012.4 |
| 20260904204107 | 93 | 193 | 0.0 | 2.0 | 0.00 | 0.04 | 0.05 | 54 | 1012.5 |
| 20260904203122 | 92 | 194 | 0.0 | 1.0 | 0.00 | 0.04 | 0.05 | 54 | 1012.7 |
| 20260904202129 | 91 | 109 | 0.0 | 3.0 | 0.00 | 0.05 | 0.05 | 52 | 1012.9 |
| 20260904201149 | 89 | 56 | 0.0 | 3.0 | 0.00 | 0.06 | 0.05 | 43 | 1012.9 |
| 20260904200142 | 88 | 92 | 0.0 | 2.0 | 0.00 | 0.06 | 0.05 | 32 | 1013.0 |
| 20260904195154 | 86 | 92 | 0.0 | 1.0 | 0.00 | 0.08 | 0.05 | 10 | 1013.0 |
| 20260904194140 | 84 | 92 | 0.0 | 2.0 | 0.00 | 0.08 | 0.05 | 1 | 1013.1 |
| 20260904193201 | 83 | 92 | 0.0 | 3.0 | 0.00 | 0.08 | 0.05 | 1 | 1013.2 |
| 20260904192144 | 83 | 116 | 0.0 | 3.0 | 0.00 | 0.08 | 0.05 | 1 | 1013.4 |
| 20260904191131 | 83 | 90 | 0.0 | 0.0 | 0.00 | 0.08 | 0.05 | 1 | 1013.5 |
| 20260904190116 | 83 | 90 | 0.0 | 1.0 | 0.00 | 0.09 | 0.05 | 1 | 1013.6 |